Location: Rock Island IL
(41.5000°N, 90.5500°W)
Time: 14:54:29
(UTC-05:00)

Envisat - Visible Passes

Search period start: 21 June 2018 00:00
Search period end: 01 July 2018 00:00
Orbit: 764 x 766 km, 98.2° (Epoch: 21 June)

Date Brightness Start Highest point End Pass type
(mag) Time Alt. Az. Time Alt. Az. Time Alt. Az.
21 Jun 5.4 21:25:01 10° SW 21:28:44 20° W 21:32:29 10° NW visible
23 Jun 5.9 21:53:07 10° WSW 21:54:37 11° W 21:56:07 10° WNW visible
24 Jun 5.1 21:13:19 10° SSW 21:17:29 26° W 21:21:42 10° NW visible
26 Jun 5.7 21:40:32 10° WSW 21:43:19 15° W 21:46:05 10° WNW visible
29 Jun 5.5 21:28:32 10° SW 21:32:02 19° W 21:35:33 10° NW visible
